Date,TemperatureHighF,TemperatureAvgF,TemperatureLowF,DewpointHighF,DewpointAvgF,DewpointLowF,HumidityHigh,HumidityAvg,HumidityLow,PressureMaxIn,PressureMinIn,WindSpeedMaxMPH,WindSpeedAvgMPH,GustSpeedMaxMPH,PrecipitationSumIn
2013-1-1,36.7,35.2,33.9,27.8,26.3,21.3,72,70,54,29.76,29.70,8,3,27,0.00
2013-1-2,25.3,19.4,12.9,15.2,8.2,2.4,65,61,57,30.10,30.00,5,4,16,0.00
2013-1-3,25.4,16.7,7.0,12.4,2.1,-3.7,67,53,29,30.13,29.99,6,1,13,0.00
2013-1-4,39.7,28.3,19.0,25.6,19.3,11.7,82,70,53,29.99,29.80,8,2,24,0.05
2013-1-5,42.7,34.3,26.3,26.9,23.2,19.1,84,65,41,30.25,29.83,7,2,20,0.08
2013-1-6,43.8,34.9,26.6,30.1,27.3,21.6,88,74,58,30.22,29.92,7,1,16,0.00
2013-1-7,39.9,34.6,27.8,30.7,25.4,17.1,90,70,45,30.39,29.94,7,2,15,0.00
2013-1-8,47.3,37.1,26.8,30.8,28.8,24.5,93,73,51,30.36,30.24,9,2,21,0.00
2013-1-9,45.0,37.6,27.6,36.9,30.7,25.3,91,77,57,30.39,29.97,6,2,14,0.00
2013-1-10,47.8,42.4,34.8,30.2,26.6,24.9,69,54,42,30.52,30.01,8,4,22,0.00
2013-1-11,41.3,36.4,29.6,37.4,30.2,24.5,94,78,67,30.51,30.21,3,1,8,0.10
2013-1-12,44.6,42.0,38.8,43.4,41.0,37.2,98,96,94,30.22,30.11,3,0,7,0.02
2013-1-13,53.4,47.6,43.2,50.8,46.7,42.5,99,97,91,30.14,29.97,6,1,14,0.01
2013-1-14,62.0,53.1,43.3,53.5,44.5,29.3,95,75,44,30.23,29.83,6,3,16,0.00
2013-1-15,43.2,39.6,35.8,29.9,27.5,25.8,69,62,56,30.30,30.20,5,1,10,0.00
2013-1-16,35.7,33.9,31.4,33.0,30.4,24.4,95,88,64,30.23,29.81,3,1,7,0.15
2013-1-17,42.5,35.9,30.7,34.0,29.2,16.0,95,78,54,30.08,29.82,5,2,14,0.24
2013-1-18,30.7,24.1,19.1,15.2,3.3,-5.5,53,41,25,30.44,30.05,8,3,16,0.00
2013-1-19,49.2,38.3,24.3,33.7,24.2,8.4,74,57,40,30.38,29.87,10,5,25,0.00
2013-1-20,54.3,42.5,30.1,34.4,27.3,12.1,74,56,36,29.90,29.52,12,5,34,0.00
2013-1-21,30.1,26.6,23.0,14.3,8.2,2.4,56,46,31,30.09,29.90,6,2,17,0.00
2013-1-22,26.3,22.0,14.8,21.3,10.7,1.5,90,64,39,30.07,29.75,7,3,18,0.00
2013-1-23,18.4,13.1,8.7,3.0,-4.6,-12.8,64,45,25,30.13,30.05,6,3,19,0.00
2013-1-24,20.5,12.8,4.5,-3.5,-8.0,-14.4,57,40,20,30.21,30.05,8,3,20,0.00
2013-1-25,24.8,17.7,10.0,14.4,-4.6,-11.0,83,38,20,30.29,30.06,7,2,15,0.00
2013-1-26,26.5,19.0,13.2,14.5,5.4,-3.7,85,58,31,30.22,30.00,7,3,17,0.00
2013-1-27,32.1,22.6,14.5,5.2,2.9,-2.7,64,44,28,30.46,30.22,7,3,16,0.00
2013-1-28,31.9,26.4,21.3,28.7,14.1,3.1,94,62,33,30.44,30.00,4,1,9,0.00
2013-1-29,35.4,31.5,26.7,34.1,29.1,24.8,95,91,85,30.18,30.01,2,1,7,0.13
2013-1-30,62.4,50.5,35.3,58.2,48.7,34.2,98,94,85,30.14,29.45,8,3,32,0.11
2013-1-31,61.5,49.0,32.1,59.3,38.8,16.9,95,70,41,29.57,28.94,12,6,35,0.27
2013-2-1,34.5,30.1,23.9,18.9,10.9,6.3,58,45,34,30.07,29.57,7,4,20,0.01
2013-2-2,30.9,25.8,19.4,14.1,8.9,4.8,57,49,39,30.24,30.04,5,3,13,0.00
2013-2-3,27.7,26.0,23.5,23.9,21.3,13.9,89,83,56,30.04,29.72,4,2,10,0.00
2013-2-4,30.5,25.9,21.9,22.7,13.4,7.2,89,60,40,29.93,29.71,7,3,19,0.00
2013-2-5,29.9,26.2,22.2,25.0,15.0,10.1,91,63,49,30.02,29.92,4,1,11,0.00
2013-2-6,40.0,31.5,26.4,27.8,21.2,8.2,92,68,42,30.28,29.92,6,2,16,0.07
2013-2-7,30.6,26.1,19.7,20.2,5.6,1.1,69,42,31,30.52,30.28,6,2,16,0.00
2013-2-8,33.7,30.4,18.9,32.2,26.7,17.5,97,87,67,30.48,29.58,7,2,17,0.00
2013-2-9,21.9,19.0,14.7,20.7,17.0,10.5,95,91,83,30.17,29.55,9,2,19,0.00
2013-2-10,40.2,24.6,12.2,21.1,12.8,7.1,83,64,25,30.39,30.18,6,1,15,0.31
2013-2-11,44.7,33.1,21.6,43.9,29.6,14.3,98,87,63,30.34,29.59,4,0,9,0.30
2013-2-12,45.1,39.6,34.6,38.3,31.0,27.5,99,72,55,29.86,29.59,6,2,22,0.00
2013-2-13,43.0,36.2,29.1,29.8,26.9,23.8,83,69,53,29.85,29.67,4,1,11,0.00
2013-2-14,45.4,37.5,31.4,29.8,25.2,18.5,83,63,34,29.98,29.68,4,1,12,0.00
2013-2-15,52.4,40.3,31.0,37.2,32.8,25.4,94,76,52,29.99,29.88,6,2,18,0.00
2013-2-16,39.4,35.7,31.6,33.6,29.0,20.2,94,77,57,29.93,29.70,5,2,12,0.02
2013-2-17,31.5,23.2,18.5,22.0,13.7,4.1,91,68,48,29.69,29.37,11,6,27,0.00
2013-2-18,32.6,24.1,15.8,6.7,4.3,1.8,57,43,27,30.14,29.66,9,5,27,0.00
2013-2-19,47.7,37.8,24.7,43.5,26.1,5.6,97,64,43,30.16,29.56,5,2,13,0.36
2013-2-20,42.9,33.7,27.7,42.1,22.1,9.7,97,64,38,29.77,29.51,7,3,22,0.05
2013-2-21,34.6,28.9,25.6,17.8,15.6,12.6,69,58,46,30.16,29.77,10,5,22,0.00
2013-2-22,39.7,32.9,25.6,27.4,22.9,17.7,79,67,49,30.38,30.17,5,2,14,0.00
2013-2-23,39.4,35.9,32.1,33.9,30.6,25.7,96,81,73,30.33,29.91,5,2,10,0.11
2013-2-24,38.4,35.1,31.9,37.6,34.1,30.9,97,96,95,29.91,29.67,7,2,17,0.52
2013-2-25,41.1,36.1,31.1,34.0,31.5,29.1,96,84,67,30.23,29.88,3,1,7,0.18
2013-2-26,43.7,37.5,30.1,35.6,31.4,27.7,96,80,56,30.32,30.15,5,2,13,0.00
2013-2-27,42.1,40.5,39.2,40.8,38.9,33.2,97,94,79,30.15,29.54,10,5,25,1.50
2013-2-28,48.0,39.7,35.2,39.5,36.4,33.7,97,88,71,29.63,29.51,3,1,8,0.00
2013-3-1,42.0,39.1,35.7,36.8,32.3,29.5,92,77,65,29.66,29.51,5,2,12,0.00
2013-3-2,44.3,38.8,33.5,31.7,29.3,27.2,79,69,58,29.66,29.60,6,2,13,0.00
2013-3-3,43.3,37.1,33.7,34.3,30.5,26.7,91,77,67,29.63,29.54,5,2,12,0.00
2013-3-4,41.5,35.7,31.2,30.2,26.3,23.3,84,69,53,29.72,29.55,8,5,22,0.00
2013-3-5,45.7,38.2,32.2,34.4,29.5,24.2,87,71,56,30.05,29.72,6,2,15,0.00
2013-3-6,41.3,38.2,35.8,36.9,34.2,31.2,93,86,70,30.10,30.03,10,5,26,0.11
2013-3-7,37.2,33.6,31.6,32.8,31.0,29.8,94,91,77,30.06,29.97,9,5,26,0.19
2013-3-8,41.9,34.3,30.4,34.0,29.6,25.4,97,84,57,30.13,29.93,10,4,26,0.15
2013-3-9,45.4,37.0,30.9,33.4,28.2,22.7,93,71,55,30.34,30.13,7,2,15,0.20
2013-3-10,42.0,35.5,28.4,33.6,31.0,26.9,95,84,64,30.40,30.31,4,2,9,0.01
2013-3-11,53.4,43.5,36.4,41.8,37.6,33.3,92,80,61,30.32,30.14,6,2,15,0.00
2013-3-12,57.2,50.8,42.4,54.3,48.5,40.4,97,92,82,30.15,29.72,7,2,17,0.27
2013-3-13,53.4,46.1,38.9,52.6,33.2,22.0,97,64,35,29.77,29.68,6,3,18,0.01
2013-3-14,39.0,33.6,24.5,26.3,17.8,9.1,67,52,40,29.82,29.69,7,3,21,0.00
2013-3-15,41.8,31.3,21.4,28.5,14.4,6.1,72,50,27,29.86,29.62,8,4,19,0.00
2013-3-16,40.8,35.5,29.6,27.9,16.2,6.4,72,47,25,29.86,29.65,5,2,14,0.00
2013-3-17,39.7,32.7,26.8,20.3,12.7,6.7,65,45,26,30.30,29.86,7,3,16,0.00
2013-3-18,38.7,29.7,20.6,28.0,12.2,2.4,91,49,31,30.45,30.24,5,2,12,0.00
2013-3-19,36.5,33.4,29.2,35.5,32.2,27.2,97,95,91,30.23,29.60,8,5,20,0.62
2013-3-20,39.5,32.5,26.5,27.2,23.5,21.0,92,71,49,29.80,29.68,6,3,19,0.21
2013-3-21,38.2,32.4,27.4,30.6,24.2,19.4,91,72,52,29.81,29.60,3,1,11,0.03
2013-3-22,40.6,34.7,29.2,29.0,22.5,18.3,90,62,42,29.73,29.59,5,2,14,0.00
2013-3-23,44.5,36.6,29.3,25.7,22.1,20.0,75,57,39,29.76,29.61,9,4,21,0.00
2013-3-24,48.2,39.9,31.9,32.1,26.2,22.4,76,59,42,29.80,29.71,7,2,19,0.00
2013-3-25,45.9,38.8,32.9,36.0,31.7,27.1,84,75,58,29.76,29.50,7,3,19,0.00
2013-3-26,52.3,42.8,35.7,32.4,26.8,21.1,86,55,32,29.76,29.52,5,3,13,0.00
2013-3-27,55.5,44.9,31.9,33.8,26.6,23.6,73,50,32,29.85,29.71,7,3,17,0.00
2013-3-28,48.1,43.4,38.1,36.7,34.8,31.0,90,73,52,30.00,29.85,5,2,14,0.01
2013-3-29,58.4,47.0,36.4,41.0,34.3,31.4,84,63,40,30.03,29.94,6,2,15,0.02
2013-3-30,58.9,48.5,39.1,35.2,27.4,16.0,76,48,20,30.08,29.98,5,2,13,0.00
2013-3-31,61.2,47.4,32.7,41.7,29.5,23.0,78,53,24,30.11,29.74,8,2,18,0.01
2013-4-1,62.8,48.5,36.7,48.5,38.5,14.2,96,71,36,29.77,29.48,8,4,22,0.15
2013-4-2,42.2,35.9,31.2,19.0,15.5,10.9,54,43,30,29.93,29.77,8,4,26,0.00
2013-4-3,47.6,38.3,31.5,20.9,15.4,10.7,62,40,23,30.14,29.91,9,4,21,0.00
2013-4-4,57.3,43.4,30.6,27.9,18.7,13.3,61,40,19,30.28,30.03,7,3,18,0.00
2013-4-5,62.0,47.3,39.2,32.2,28.5,22.8,71,51,24,30.04,29.61,9,4,21,0.00
2013-4-6,48.5,40.1,33.4,27.6,13.8,4.2,60,37,17,30.32,29.86,10,4,20,0.00
2013-4-7,54.7,44.3,31.7,41.7,30.4,21.5,80,59,33,30.32,29.99,9,3,25,0.00
2013-4-8,66.6,53.5,44.8,44.4,41.5,36.8,92,66,34,30.08,29.93,6,2,14,0.00
2013-4-9,72.8,56.2,47.7,54.0,45.8,40.3,94,71,41,30.08,29.84,6,2,17,0.16
2013-4-10,61.6,51.7,47.4,49.5,46.0,42.8,94,81,63,30.00,29.85,5,1,11,0.19
2013-4-11,51.9,47.8,44.5,48.0,42.2,30.0,96,82,55,30.13,29.81,4,2,11,0.05
2013-4-12,44.5,40.3,38.4,38.8,36.3,32.2,95,86,63,30.16,29.77,10,4,23,0.45
2013-4-13,53.3,43.7,36.8,41.7,38.4,35.1,95,83,55,29.91,29.74,5,2,15,0.03
2013-4-14,54.3,47.6,41.3,42.3,34.2,28.2,86,61,39,30.20,29.90,7,2,19,0.00
2013-4-15,56.6,46.6,36.2,41.0,35.3,30.0,83,66,46,30.38,30.20,7,2,14,0.00
2013-4-16,64.7,53.4,41.1,52.0,43.3,37.2,91,70,49,30.40,30.04,9,4,21,0.00
2013-4-17,68.5,60.1,51.6,53.7,39.1,30.0,85,50,26,30.32,30.04,7,3,17,0.00
2013-4-18,64.7,53.3,42.8,45.3,36.7,28.0,77,55,32,30.42,30.13,6,3,19,0.00
2013-4-19,75.1,64.4,53.7,64.1,58.8,45.3,97,83,61,30.13,29.64,9,4,24,0.00
2013-4-20,67.4,55.4,45.8,63.7,42.8,25.7,94,66,39,30.20,29.58,9,4,22,0.48
2013-4-21,54.6,44.5,36.4,33.6,25.3,20.5,67,48,27,30.67,30.20,7,3,20,0.00
2013-4-22,51.0,43.6,35.9,37.0,32.4,23.7,84,66,36,30.75,30.59,8,4,19,0.00
2013-4-23,43.3,42.3,40.4,41.9,39.2,33.2,96,89,72,30.58,30.11,5,3,14,0.04
2013-4-24,74.9,55.5,42.8,54.1,46.5,41.7,96,75,36,30.10,29.77,8,3,17,0.01
2013-4-25,66.2,57.0,49.0,53.5,38.5,24.8,92,55,22,30.25,29.81,7,3,17,0.03
2013-4-26,58.0,50.5,43.7,43.1,37.4,33.3,86,62,44,30.41,30.25,6,2,17,0.00
2013-4-27,63.7,53.3,40.7,42.9,38.5,33.8,92,61,35,30.41,30.28,5,2,13,0.00
2013-4-28,67.8,56.2,43.1,43.6,37.8,29.4,85,53,31,30.33,30.20,7,2,15,0.00
2013-4-29,70.4,58.9,49.2,48.4,39.5,20.5,84,53,21,30.26,30.16,6,2,14,0.00
2013-4-30,68.5,57.3,46.7,40.1,31.6,14.3,72,42,13,30.35,30.24,5,1,11,0.00
2013-5-1,67.7,56.4,42.6,42.6,37.4,31.1,86,53,26,30.45,30.36,4,1,11,0.00
2013-5-2,76.6,57.3,47.4,48.6,42.7,36.8,85,62,27,30.48,30.34,8,2,17,0.00
2013-5-3,59.8,51.4,44.2,46.6,42.3,39.6,88,72,56,30.51,30.36,5,2,13,0.00
2013-5-4,57.1,49.8,42.5,47.0,41.8,39.1,92,75,58,30.36,30.30,5,2,14,0.00
2013-5-5,59.2,49.5,38.9,43.8,40.8,37.1,95,74,52,30.32,30.25,4,2,13,0.00
2013-5-6,64.5,51.8,41.1,50.6,46.0,39.2,97,82,56,30.28,30.15,4,1,12,0.00
2013-5-7,74.8,63.0,46.6,60.2,53.0,44.4,94,72,49,30.17,30.07,5,1,12,0.00
2013-5-8,73.1,62.3,55.3,63.3,58.3,53.6,96,87,70,30.18,30.03,5,2,14,0.05
2013-5-9,68.8,60.0,57.2,63.3,58.7,55.9,99,95,78,30.04,29.88,3,0,8,0.23
2013-5-10,79.8,65.5,56.6,61.6,58.3,56.0,99,80,47,29.94,29.87,4,1,10,0.09
2013-5-11,72.8,65.3,60.0,63.6,60.1,55.8,94,84,69,29.89,29.67,8,3,21,0.02
2013-5-12,72.5,62.7,52.7,61.2,52.8,31.8,96,73,39,29.80,29.54,6,2,19,0.01
2013-5-13,60.5,52.1,45.2,35.7,32.2,28.1,68,48,32,30.02,29.80,7,3,18,0.01
2013-5-14,60.5,52.0,42.3,36.8,32.9,29.1,72,50,32,30.04,29.96,6,2,14,0.00
2013-5-15,67.1,54.5,40.6,53.3,40.8,32.2,90,63,31,30.05,29.67,7,2,22,0.00
2013-5-16,82.2,68.0,49.4,52.7,43.5,34.2,96,49,21,29.78,29.60,8,2,21,0.00
2013-5-17,70.2,61.3,53.8,47.3,43.4,38.3,70,53,33,30.20,29.79,6,2,15,0.00
2013-5-18,72.4,61.5,48.7,51.1,46.1,38.2,87,60,30,30.29,30.20,4,1,12,0.00
2013-5-19,72.4,58.1,51.3,55.9,51.5,47.9,96,80,49,30.33,30.21,5,1,11,0.09
2013-5-20,82.5,68.2,56.6,66.2,61.4,55.5,98,81,55,30.21,29.88,4,1,17,0.05
2013-5-21,77.8,62.3,52.5,66.2,58.4,51.1,97,88,65,30.01,29.85,6,2,15,0.04
2013-5-22,67.4,57.1,51.6,61.1,54.3,50.5,97,91,77,30.04,29.88,5,1,15,0.10
2013-5-23,77.4,65.4,55.4,70.0,62.2,54.6,99,90,73,29.92,29.79,8,2,20,0.12
2013-5-24,72.2,64.0,50.6,68.3,62.1,49.7,97,94,79,29.81,29.63,5,2,13,0.13
2013-5-25,53.3,48.5,42.9,51.9,47.2,40.2,98,95,90,29.80,29.68,5,3,17,0.06
2013-5-26,59.7,50.0,41.0,44.6,41.0,38.7,94,73,49,30.09,29.70,7,3,21,0.05
2013-5-27,73.3,59.3,42.5,48.7,40.9,35.7,92,56,26,30.16,30.05,6,2,25,0.02
2013-5-28,72.6,61.1,47.6,54.4,48.0,40.0,92,65,36,30.22,30.14,4,1,11,0.00
2013-5-29,71.3,63.7,59.7,65.2,60.7,54.3,97,90,76,30.17,29.98,3,1,10,0.01
2013-5-30,89.0,76.8,63.2,70.4,67.1,62.3,98,75,50,30.06,29.97,5,2,15,0.00
2013-5-31,95.5,82.9,67.9,70.9,67.1,64.0,91,62,37,30.06,29.90,6,2,16,0.00
2013-6-1,93.7,82.1,69.7,69.7,66.6,63.5,82,61,39,29.95,29.82,7,3,18,0.00
2013-6-2,90.9,79.6,70.4,71.1,67.4,64.7,87,68,43,29.85,29.69,11,5,27,0.00
2013-6-3,78.4,70.9,64.4,68.7,64.1,45.6,95,80,49,29.83,29.73,5,2,11,0.00
2013-6-4,73.0,64.1,53.3,51.2,46.2,42.5,70,53,39,30.08,29.81,5,2,14,0.00
2013-6-5,75.7,65.4,54.9,53.0,48.4,44.3,76,56,36,30.17,30.07,4,2,12,0.00
2013-6-6,76.4,66.3,57.6,56.9,51.0,43.9,79,59,37,30.17,30.08,4,2,12,0.00
2013-6-7,62.1,57.2,54.8,57.8,55.1,51.0,98,93,79,30.10,29.80,4,2,13,0.00
2013-6-8,79.2,64.6,54.4,65.9,59.0,53.8,99,84,61,29.98,29.59,5,2,16,0.00
2013-6-9,80.8,70.3,58.0,59.9,57.6,54.8,95,67,44,30.14,29.98,4,1,14,0.00
2013-6-10,70.2,64.1,58.6,59.8,58.0,56.2,97,81,62,30.19,30.01,3,1,10,0.00
2013-6-11,64.4,59.4,56.9,59.8,57.8,56.1,99,94,84,30.01,29.55,5,2,14,0.01
2013-6-12,73.1,63.8,57.3,60.1,57.0,54.7,99,80,56,29.79,29.54,6,2,19,0.00
2013-6-13,69.2,59.7,53.5,58.7,54.7,52.1,96,84,55,29.80,29.66,3,1,10,0.00
2013-6-14,74.6,62.0,52.6,58.3,54.9,51.5,98,80,52,29.74,29.62,5,2,12,0.00
2013-6-15,80.3,69.5,57.8,55.8,49.6,42.1,88,53,27,29.91,29.74,4,1,18,0.00
2013-6-16,77.3,68.7,57.1,63.9,55.5,49.3,83,64,42,29.92,29.69,6,2,14,0.00
2013-6-17,87.7,71.4,61.1,66.4,61.5,56.2,96,74,36,29.88,29.75,6,2,19,0.00
2013-6-18,76.7,64.6,59.8,65.3,61.0,58.4,97,89,65,29.93,29.86,5,1,14,0.00
2013-6-19,75.2,65.9,57.1,59.0,53.9,47.9,97,69,42,30.12,29.89,4,1,13,0.00
2013-6-20,80.7,68.9,54.6,58.3,53.2,46.5,91,60,35,30.24,30.12,5,1,10,0.00
2013-6-21,85.5,73.3,60.5,65.6,59.5,54.8,82,64,38,30.23,30.16,4,2,11,0.00
2013-6-22,86.2,74.9,65.1,65.4,60.8,57.5,77,63,43,30.20,30.09,6,3,15,0.00
2013-6-23,91.5,78.5,67.3,73.9,66.1,57.7,79,66,53,30.14,29.96,8,3,20,0.00
2013-6-24,94.6,81.9,71.7,74.3,71.3,69.0,93,73,47,29.99,29.84,7,2,15,0.00
2013-6-25,92.9,81.3,70.7,72.4,69.5,67.0,94,70,45,29.90,29.69,8,2,18,0.00
2013-6-26,85.4,77.0,70.6,75.6,70.2,68.3,93,80,61,29.83,29.69,4,1,10,0.00
2013-6-27,72.3,66.6,62.9,68.3,64.7,62.1,98,94,83,29.85,29.74,3,1,11,0.00
2013-6-28,83.6,72.0,62.0,74.3,68.6,61.4,100,90,67,29.75,29.47,7,3,22,0.00
2013-6-29,84.6,76.6,72.1,72.4,70.1,66.4,95,81,59,29.70,29.49,8,3,18,0.00
2013-6-30,86.6,77.8,71.1,74.7,71.1,68.6,94,81,63,29.91,29.70,6,2,17,0.00
2013-7-1,82.7,76.3,72.5,76.8,73.1,71.1,96,90,77,30.06,29.91,4,2,12,0.00
2013-7-2,84.7,75.0,63.8,75.1,70.4,61.5,93,86,69,30.19,30.05,5,2,14,0.00
2013-7-3,91.3,77.6,63.0,74.6,69.9,61.2,95,79,56,30.18,30.10,7,3,19,0.00
2013-7-4,93.8,84.2,74.0,76.0,74.2,72.2,95,74,52,30.18,30.06,7,3,17,0.00
2013-7-5,95.3,86.1,78.1,76.7,74.5,73.0,85,70,51,30.13,30.00,6,3,16,0.00
2013-7-6,93.2,84.6,77.3,75.4,72.8,64.6,88,69,50,30.05,29.94,5,2,13,0.00
2013-7-7,94.4,82.4,73.4,76.1,70.9,64.4,85,69,52,29.99,29.87,4,1,11,0.01
2013-7-8,85.4,78.3,69.7,76.5,72.3,65.9,93,82,67,30.04,29.88,4,1,10,0.00
2013-7-9,74.1,69.8,66.0,68.4,66.1,64.3,97,88,81,30.09,30.02,4,1,7,0.00
2013-7-13,78.7,71.5,67.2,70.7,66.9,63.0,96,86,75,30.29,30.18,3,1,8,0.02
2013-7-14,93.5,80.7,70.8,75.0,72.3,69.7,99,78,48,30.28,30.18,4,1,13,0.00
2013-7-15,95.1,83.7,73.9,74.7,72.6,70.1,92,71,49,30.18,30.06,4,1,12,0.00
2013-7-16,95.9,83.6,73.9,74.7,69.8,66.5,86,65,40,30.14,30.08,4,1,11,0.00
2013-7-17,97.1,85.4,74.7,75.2,71.8,67.2,89,66,39,30.15,29.97,5,2,13,0.00
2013-7-18,93.1,84.1,78.3,76.3,72.8,68.6,85,70,48,29.98,29.92,5,2,14,0.00
2013-7-19,98.9,87.9,77.6,79.1,75.2,71.1,91,69,43,29.92,29.68,9,4,24,0.00
2013-7-20,95.7,86.7,79.3,78.0,74.4,65.3,86,68,47,29.77,29.61,6,2,18,0.00
2013-7-21,82.4,76.3,72.5,69.4,65.8,61.8,89,71,54,29.97,29.77,6,1,13,0.01
2013-7-22,83.0,74.7,69.8,71.0,68.7,66.5,95,82,61,29.99,29.87,4,1,11,0.00
2013-7-23,82.0,73.5,69.9,76.7,72.0,67.9,99,95,82,29.87,29.52,5,1,15,0.35
2013-7-24,86.5,78.0,68.4,74.2,69.3,56.2,99,77,54,29.93,29.56,4,1,14,0.05
2013-7-25,68.3,62.4,60.2,60.0,56.0,50.6,97,80,64,30.08,29.93,5,2,14,0.01
2013-7-26,72.0,65.9,60.8,68.9,64.1,59.9,98,94,82,30.04,29.90,4,2,15,0.02
2013-7-27,85.1,73.1,60.8,67.9,64.2,59.4,96,76,48,30.03,29.96,5,2,13,0.02
2013-7-28,81.9,72.6,68.3,72.8,68.7,65.8,96,88,73,30.00,29.94,3,1,9,0.01
2013-7-29,84.7,74.2,68.6,73.2,69.1,66.2,97,85,64,30.01,29.94,6,1,17,0.01
2013-7-30,84.2,74.2,62.6,68.9,61.6,56.2,98,68,40,30.07,30.00,4,1,11,0.01
2013-7-31,84.0,74.5,64.2,65.4,61.0,54.9,87,65,40,30.11,30.01,3,1,9,0.01
2013-8-1,83.2,73.4,65.7,66.2,63.5,61.5,91,73,51,30.03,29.86,7,2,16,0.00
2013-8-2,84.3,73.6,65.1,69.2,64.0,58.5,98,74,42,29.87,29.76,5,1,15,0.00
2013-8-3,80.2,73.0,66.8,65.6,63.7,61.6,90,74,54,29.84,29.75,7,2,16,0.01
2013-8-4,81.9,71.0,62.0,63.1,58.5,55.5,84,66,43,29.86,29.74,5,1,14,0.00
2013-8-5,77.7,67.8,59.0,55.2,50.2,42.1,81,56,30,30.03,29.86,5,2,18,0.00
2013-8-6,79.4,68.3,55.5,57.9,52.5,49.1,84,59,40,30.13,30.03,3,1,9,0.00
2013-8-7,82.2,70.9,59.8,61.5,56.3,50.0,90,63,37,30.17,30.09,6,2,14,0.00
2013-8-8,82.9,73.3,67.0,71.7,66.7,55.4,92,80,65,30.12,29.98,6,2,14,0.00
2013-8-9,76.0,74.0,72.5,75.2,72.3,70.2,98,95,89,30.01,29.73,6,2,16,0.01
2013-8-10,85.1,75.9,66.7,72.8,63.6,56.5,98,69,44,29.99,29.77,4,2,15,0.00
2013-8-11,80.5,70.6,58.5,60.1,56.2,51.7,90,63,42,30.06,29.98,4,1,13,0.00
2013-8-12,83.6,73.3,63.2,63.9,59.7,55.3,89,65,41,30.01,29.90,5,1,12,0.00
2013-8-13,76.9,71.4,68.0,67.9,64.7,62.3,87,80,62,29.90,29.67,3,1,9,0.00
2013-8-14,76.3,68.7,63.2,64.8,56.2,51.9,93,66,46,29.94,29.64,6,2,19,0.01
2013-8-15,78.7,67.7,56.7,55.6,53.1,49.3,86,62,38,30.09,29.94,5,1,14,0.00
2013-8-16,80.6,69.9,58.2,59.4,55.7,52.3,86,63,38,30.17,30.09,4,1,12,0.00
2013-8-17,80.1,70.8,60.7,61.7,58.7,55.8,84,67,47,30.25,30.17,4,1,10,0.00
2013-8-18,81.7,72.3,63.9,63.8,60.2,56.4,89,67,43,30.25,30.06,4,1,9,0.00
2013-8-19,83.1,73.2,62.0,64.0,61.3,58.4,92,68,46,30.06,29.93,4,2,13,0.00
2013-8-20,88.0,77.4,66.9,65.7,62.6,58.9,83,62,39,30.06,29.96,3,1,9,0.00
2013-8-21,90.4,78.2,65.6,67.2,64.6,61.8,88,65,43,30.12,30.00,4,1,12,0.00
2013-8-22,87.8,77.2,68.0,72.9,68.3,64.3,91,75,50,30.01,29.80,7,3,16,0.00
2013-8-23,82.4,73.9,66.2,70.4,61.7,51.9,92,67,43,30.11,29.80,4,2,13,0.00
2013-8-24,77.4,67.9,58.1,53.6,49.2,43.3,77,54,30,30.31,30.11,4,1,13,0.00
2013-8-25,84.4,71.4,57.1,57.7,53.3,48.1,85,56,30,30.34,30.17,5,1,12,0.00
2013-8-26,83.3,73.6,66.5,67.7,63.2,57.5,83,70,55,30.17,29.85,6,2,22,0.00
2013-8-27,83.6,75.0,69.5,71.2,68.5,66.4,96,81,62,29.88,29.81,3,1,8,0.01
2013-8-28,83.8,72.1,65.3,69.5,66.0,63.5,95,83,58,29.97,29.84,4,1,10,0.00
2013-8-29,67.4,65.5,63.5,65.5,62.4,58.6,95,90,84,30.06,29.94,6,2,13,0.00
2013-8-30,84.3,72.5,63.1,69.3,64.4,59.1,89,77,56,30.01,29.80,5,2,13,0.00
2013-8-31,81.9,75.6,70.2,74.6,71.5,68.3,95,87,76,29.82,29.76,6,2,14,0.02
2013-9-1,80.3,74.3,71.0,76.0,71.8,67.8,97,92,81,29.86,29.77,5,1,12,0.28
2013-9-2,83.8,75.9,72.2,76.3,72.6,70.1,97,90,72,29.85,29.69,6,1,18,0.02
2013-9-3,82.7,75.2,66.9,72.8,68.9,59.6,97,82,63,29.79,29.67,6,2,15,0.01
2013-9-4,81.5,71.3,60.8,61.3,58.5,55.7,89,66,42,29.90,29.78,5,2,14,0.01
2013-9-5,71.7,65.0,56.0,63.0,57.4,42.5,92,77,35,30.13,29.84,4,1,10,0.00
2013-9-6,70.5,60.2,48.7,48.5,44.4,39.8,83,58,36,30.23,30.08,4,1,10,0.00
2013-9-7,81.0,66.0,52.2,57.7,50.8,46.3,83,61,36,30.08,29.83,6,2,13,0.01
2013-9-8,77.0,66.8,55.3,62.8,53.3,41.4,88,64,36,30.08,29.72,6,2,19,0.00
2013-9-9,70.7,60.0,48.0,51.8,45.5,40.7,81,61,39,30.22,30.08,6,2,15,0.00
2013-9-10,76.5,68.1,57.7,70.6,63.0,51.5,94,84,75,30.15,30.01,8,2,17,0.06
2013-9-11,96.6,82.1,69.8,77.5,72.5,66.9,98,76,45,30.05,29.91,6,2,16,0.00
2013-9-12,88.7,78.9,68.2,75.2,71.3,67.0,96,79,58,29.94,29.65,9,3,21,0.11
2013-9-13,80.5,70.0,61.3,69.0,65.5,55.8,98,86,61,29.73,29.54,4,1,11,0.28
2013-9-14,68.4,62.4,55.5,56.4,54.2,51.8,88,75,63,30.04,29.73,3,1,12,0.01
2013-9-15,73.4,61.6,51.1,53.9,50.6,47.3,93,70,43,30.15,30.03,5,1,12,0.00
2013-9-16,70.4,60.0,50.6,56.2,51.3,40.8,85,74,57,30.24,30.00,5,2,19,0.01
2013-9-17,64.7,54.0,43.4,46.1,40.7,36.9,82,62,42,30.41,30.24,5,2,14,0.01
2013-9-18,74.8,59.3,45.4,50.6,45.9,42.4,92,65,32,30.31,30.12,5,1,11,0.01
2013-9-19,80.5,64.7,50.5,56.4,52.6,47.7,91,68,37,30.12,30.01,3,1,7,0.01
2013-9-20,79.5,65.6,53.2,60.3,56.3,51.5,94,74,45,30.07,29.98,3,1,9,0.01
2013-9-21,77.4,67.4,57.4,66.8,61.2,55.4,97,82,58,30.01,29.71,9,3,22,0.00
2013-9-22,72.0,66.3,54.6,68.3,58.4,47.2,96,77,50,29.81,29.59,8,2,23,0.01
2013-9-23,64.9,55.2,47.9,46.6,43.6,41.1,81,66,50,29.99,29.81,5,2,15,0.01
2013-9-24,68.3,55.6,45.0,47.4,43.8,40.5,86,66,43,29.98,29.80,5,2,15,0.00
2013-9-25,67.4,57.0,48.0,51.4,48.2,44.4,89,73,55,29.97,29.87,4,1,11,0.00
2013-9-26,66.8,59.8,54.9,53.1,50.2,46.9,84,71,53,30.11,29.97,5,1,11,0.00
2013-9-27,67.0,60.4,53.8,54.7,52.2,50.2,88,75,58,30.25,30.11,4,1,10,0.00
2013-9-28,73.5,60.5,50.7,57.7,53.7,49.3,95,80,52,30.31,30.24,4,1,10,0.00
2013-9-29,67.7,56.5,49.2,57.4,51.2,46.0,99,85,46,30.25,30.11,3,1,10,0.00
2013-9-30,68.6,57.0,49.7,54.9,51.6,49.2,99,84,52,30.12,29.96,3,0,8,0.00
2013-10-1,78.1,62.9,49.8,56.3,52.7,48.4,96,73,38,29.96,29.83,4,1,12,0.00
2013-10-2,81.5,68.4,57.1,62.8,58.8,54.3,92,73,52,29.93,29.80,5,1,17,0.00
2013-10-3,78.9,66.9,55.2,58.5,52.3,43.6,91,63,31,30.06,29.93,4,1,10,0.00
2013-10-4,67.5,61.4,55.1,59.8,55.6,51.0,91,82,71,30.07,30.01,2,0,6,0.00
2013-10-5,70.1,63.5,59.8,59.4,58.0,56.0,95,83,65,30.11,30.04,3,0,7,0.00
2013-10-6,62.3,58.0,55.6,58.9,56.7,54.3,98,95,82,30.22,30.10,4,1,9,0.00
2013-10-7,79.2,67.9,58.5,71.8,64.6,56.4,100,90,71,30.12,29.80,8,3,30,0.00
2013-10-8,67.1,59.4,50.3,56.3,46.7,40.0,81,64,40,30.36,29.88,5,2,14,0.00
2013-10-9,62.5,52.9,44.3,48.4,45.1,41.6,93,76,55,30.47,30.36,4,1,12,0.00
2013-10-10,62.8,53.8,45.1,54.0,49.8,43.9,96,87,71,30.36,30.17,3,1,8,0.01
2013-10-11,71.4,58.9,50.6,57.3,50.4,29.1,98,77,21,30.17,30.08,3,1,10,0.00
2013-10-12,61.3,55.9,50.5,57.6,52.7,48.7,97,89,80,30.38,30.14,6,2,14,0.00
2013-10-13,61.2,52.9,45.1,51.6,47.6,43.8,97,83,60,30.44,30.36,4,1,12,0.00
2013-10-14,65.7,52.0,39.5,51.6,44.7,38.7,98,79,38,30.40,30.24,3,0,7,0.00
2013-10-15,68.4,58.1,49.5,56.1,52.0,47.8,95,81,61,30.25,30.17,3,1,9,0.00
2013-10-16,62.8,56.5,51.0,56.6,53.5,49.9,99,90,79,30.17,29.90,2,0,6,0.00
2013-10-17,73.4,62.9,53.7,62.0,58.5,52.9,98,86,65,29.91,29.71,5,1,13,0.01
2013-10-18,68.8,62.6,53.6,62.1,52.7,42.4,96,72,48,29.89,29.60,6,2,17,0.00
2013-10-19,67.5,56.6,44.3,48.5,44.6,40.7,88,66,42,29.96,29.74,4,1,13,0.00
2013-10-20,63.2,55.2,45.2,52.1,42.5,34.5,96,65,36,30.01,29.68,6,2,20,0.00
2013-10-21,67.8,54.4,40.7,45.6,41.5,37.3,90,64,40,30.10,29.99,4,1,12,0.00
2013-10-22,68.1,55.7,44.2,53.4,47.0,40.0,94,74,52,29.99,29.69,6,1,14,0.00
2013-10-23,52.5,47.9,40.6,39.8,36.3,33.3,86,65,49,29.79,29.58,3,0,8,0.00
2013-10-24,54.6,47.1,40.5,37.2,31.9,25.6,78,57,36,29.87,29.62,8,2,20,0.00
2013-10-25,51.5,42.7,35.2,36.0,30.7,28.2,85,64,43,30.14,29.87,4,1,14,0.00
2013-10-26,56.3,45.0,33.4,38.2,31.8,26.9,88,63,33,30.15,29.86,9,3,20,0.00
2013-10-27,55.3,49.1,42.9,41.5,36.5,31.0,87,63,43,30.05,29.80,6,2,20,0.03
2013-10-28,59.5,46.7,35.8,37.5,33.2,26.0,86,61,41,30.34,30.04,7,2,20,0.00
2013-10-29,51.1,41.0,33.5,35.5,29.6,23.8,88,65,36,30.43,30.33,4,1,9,0.00
2013-10-30,53.4,42.5,36.9,43.7,38.0,33.2,95,84,65,30.36,30.18,2,0,7,0.04
2013-10-31,63.7,50.8,36.4,60.4,48.3,35.4,97,92,81,30.23,29.79,7,1,20,0.02
2013-11-1,71.3,65.6,59.4,64.1,59.3,54.9,95,80,64,29.78,29.44,13,6,31,0.03
2013-11-2,68.2,58.0,50.0,55.2,47.1,42.1,90,70,40,29.72,29.57,4,1,10,0.00
2013-11-3,52.5,42.5,33.8,49.0,31.6,18.0,91,67,42,30.41,29.70,4,2,13,0.00
2013-11-4,44.5,35.7,30.2,26.1,21.5,16.4,80,58,34,30.69,30.41,4,1,11,0.03
2013-11-5,51.1,40.4,29.4,37.3,30.0,23.2,82,67,47,30.71,30.50,3,0,9,0.00
2013-11-6,61.7,51.9,41.5,51.1,42.7,34.1,87,72,52,30.51,30.03,7,2,17,0.00
2013-11-7,66.9,55.5,42.2,59.4,51.0,34.2,93,85,69,30.03,29.66,8,2,20,0.21
2013-11-8,50.0,41.3,35.3,35.8,29.1,23.9,78,62,48,30.08,29.80,7,2,19,0.00
2013-11-9,46.5,40.6,33.5,30.8,26.0,22.6,71,56,39,30.20,30.03,6,2,16,0.00
2013-11-10,57.3,47.6,42.9,45.6,38.0,30.8,94,70,52,30.03,29.72,5,2,15,0.06
2013-11-11,52.8,46.5,40.3,34.4,30.2,25.4,69,54,35,30.09,29.83,6,3,16,0.00
2013-11-12,49.1,37.7,30.2,40.4,27.5,18.4,90,67,54,30.17,29.87,7,3,21,0.12
2013-11-22,47.3,45.0,41.5,46.5,42.1,31.4,98,90,67,30.36,29.80,3,0,7,0.23
2013-11-23,48.3,41.7,31.4,47.2,28.7,17.5,97,61,36,29.89,29.76,8,4,20,0.00
2013-11-24,31.3,25.8,21.6,18.9,6.4,-2.4,69,44,27,30.18,29.77,12,6,32,0.00
2013-11-25,34.3,26.8,18.3,19.1,5.1,-4.5,58,40,20,30.36,30.18,5,3,13,0.00
2013-11-26,44.4,38.0,32.2,43.1,25.3,18.3,96,61,46,30.32,30.03,8,2,16,0.08
2013-11-27,63.4,52.8,38.9,62.0,51.5,35.1,99,95,84,30.02,29.19,9,4,26,0.63
2013-11-28,38.9,32.8,26.5,35.1,19.1,8.6,86,58,36,30.42,29.43,9,4,25,0.05
2013-11-29,35.2,28.5,22.8,18.3,13.6,7.5,70,54,37,30.74,30.42,5,2,11,0.05
2013-11-30,35.3,27.7,19.0,26.2,17.2,10.5,74,64,53,30.78,30.43,3,1,9,0.06
2013-12-1,38.9,37.2,34.6,37.8,34.3,26.2,97,89,71,30.42,29.99,3,1,8,0.31
2013-12-2,40.5,38.6,37.3,40.0,37.9,36.3,98,97,96,30.00,29.91,3,1,8,0.35
2013-12-3,49.6,40.3,36.4,38.9,35.7,32.2,97,85,58,29.94,29.83,4,2,9,0.14
2013-12-4,44.5,37.8,32.9,32.6,30.2,28.0,90,75,54,30.19,29.93,5,1,14,0.01
2013-12-5,51.2,43.6,33.3,49.0,40.5,29.4,97,89,84,30.20,29.90,3,0,8,0.00
2013-12-6,56.9,49.8,35.2,56.1,45.8,33.2,98,87,58,30.13,29.84,5,2,14,0.06
2013-12-7,40.7,35.2,30.3,35.3,28.5,21.5,95,78,57,30.44,30.07,7,2,16,0.12
2013-12-8,31.7,29.7,25.2,22.0,18.5,16.4,74,63,53,30.59,30.44,3,1,9,0.00
2013-12-9,41.1,35.0,27.0,40.3,33.3,16.8,97,94,57,30.49,29.87,5,1,12,0.39
2013-12-10,35.6,32.8,26.9,34.4,29.8,17.3,97,89,64,29.99,29.77,5,2,16,0.02
2013-12-11,32.7,27.5,23.7,21.3,19.6,17.9,80,72,56,30.21,29.98,7,3,20,0.00
2013-12-12,26.6,23.2,18.0,19.4,9.5,2.6,78,57,36,30.27,30.06,7,2,18,0.00
2013-12-13,30.2,23.4,16.3,19.2,12.9,3.0,76,64,52,30.39,29.99,7,3,19,0.01
2013-12-14,30.4,17.9,11.8,29.4,8.7,-2.0,96,68,49,30.61,30.14,6,3,13,0.00
2013-12-15,35.7,29.3,23.1,35.2,27.9,22.1,99,94,82,30.14,29.41,8,2,21,0.00
2013-12-16,29.2,25.7,19.8,24.4,16.2,9.5,88,68,50,30.20,29.73,6,1,20,0.00
2013-12-17,21.4,16.1,8.4,19.7,10.4,1.8,93,78,56,30.29,29.94,6,2,14,0.00
2013-12-18,35.2,26.6,17.5,23.9,20.8,15.3,92,79,60,30.06,29.86,6,3,15,0.01
2013-12-19,43.8,34.8,25.8,29.5,25.7,21.1,83,70,53,30.10,29.94,10,2,22,0.17
2013-12-20,54.0,43.1,33.4,39.0,34.1,28.5,87,71,53,30.11,29.89,6,1,15,0.34
2013-12-21,58.1,50.2,43.3,49.2,44.1,35.9,90,80,70,29.94,29.84,5,2,11,0.16
2013-12-22,54.8,42.8,35.6,53.1,41.6,34.8,98,95,89,30.02,29.78,7,1,20,0.00
2013-12-23,38.5,34.9,33.2,38.0,34.4,32.7,98,98,97,30.08,29.94,4,1,9,0.06
2013-12-24,38.4,33.8,28.1,37.9,24.2,16.5,98,68,51,30.18,30.03,6,2,15,0.05
2013-12-25,28.0,21.4,16.1,17.2,7.9,2.9,69,56,45,30.54,30.18,7,2,17,0.00
2013-12-26,35.5,28.1,20.6,32.6,23.2,10.0,92,82,63,30.50,30.07,4,1,10,0.00
2013-12-27,34.7,29.8,24.7,24.3,22.3,20.3,88,74,60,30.26,30.17,4,2,14,0.01
2013-12-28,47.9,36.0,26.2,29.9,26.7,21.7,86,70,48,30.20,29.97,8,2,20,0.16
2013-12-29,43.6,38.4,31.2,40.3,33.6,26.9,97,83,68,30.02,29.38,7,1,17,0.27
2013-12-30,43.2,34.4,20.4,38.1,25.8,10.9,96,73,46,30.15,29.49,7,3,18,0.23
2013-12-31,26.7,20.7,15.2,17.1,8.0,-1.4,75,58,43,30.17,30.02,5,2,11,0.00
2014-1-1,28.6,23.5,18.5,13.6,10.3,7.6,67,57,45,30.37,30.17,5,2,14,0.00
2014-1-2,23.2,13.9,2.9,16.6,10.5,-0.1,89,86,62,30.35,29.85,7,4,21,0.00